Regional Weather Roundup
Issued by NWS

Home | Current Version | Previous Version | Graphics & Text | Print | Product List | Glossary On
Versions: 1 2 3 4 5 6 7 8 9 10 11 12 13 14 15 16 17 18 19 20 21 22 23 24 25 26 27 28 29 30 31 32 33 34 35 36 37 38 39 40 41 42 43 44 45 46 47 48 49 50
000
ASUS45 KSLC 171310
RWRUT

UTAH REGIONAL WEATHER ROUNDUP
NATIONAL WEATHER SERVICE SALT LAKE CITY UT
600 AM MST TUE JAN 17 2017

UTZ001>011-023>025-171400-

NORTHERN UTAH

CITY           SKY/WX    TMP DP  RH WIND       PRES   REMARKS
BRIGHAM CITY     N/A      7   3  82 CALM      30.30S
HILL AFB       PTCLDY    11   4  72 E18       30.25S WCI  -7
LOGAN          CLEAR     -3  -5  90 CALM      30.30S FOG
OGDEN          CLOUDY    12   6  77 S8        30.26S WCI   0
SALT LAKE CITY PTCLDY    19  17  92 CALM      30.27F
TOOELE VALLEY  CLEAR     18  14  86 S7        30.28S WCI   8
WENDOVER       CLOUDY    23  16  74 CALM      30.27F
HEBER CITY     PTCLDY   -11 -17  77 CALM      30.23S
WEST JORDAN    CLEAR     18  18 100 CALM      30.27S

$$

UTZ011>015-024>027-171400-

CENTRAL/NORTHEAST UTAH

CITY           SKY/WX    TMP DP  RH WIND       PRES   REMARKS
PROVO AIRPORT  PTCLDY    17  12  80 CALM      30.28S
MOAB/CANYONLAN CLEAR     28  21  75 CALM      30.16S
DELTA          CLEAR     16  14  93 E5        30.23S WCI   9
PRICE          PTCLDY     7   1  76 CALM      30.13R
RICHFIELD      CLOUDY    23  21  93 CALM      30.24F
ROOSEVELT      CLOUDY    18  16  93 CALM      30.28R FOG
VERNAL         CLOUDY    16  14  92 CALM      30.25S FOG

$$

UTZ013>016-019>022-027-171400-

SOUTHERN UTAH

CITY           SKY/WX    TMP DP  RH WIND       PRES   REMARKS
BRYCE CANYON   CLOUDY    11   8  88 NW8       30.14S FOG     WCI  -1
CEDAR CITY     PTCLDY    15  12  88 S3        30.15F
MILFORD        CLEAR     18  14  84 CALM      30.20F
ST GEORGE      MOSUNNY   30  21  69 CALM      30.20R
HANKSVILLE     CLEAR     27  23  86 MISG      30.20S
KANAB          CLEAR     30  19  64 N16       30.17R WCI  19
BLANDING       CLOUDY    33  28  83 CALM      30.19R

$$

REGIONAL REPORTS     COLORADO/ARIZONA

CITY           SKY/WX    TMP DP  RH WIND       PRES   REMARKS
CRAIG, CO      CLOUDY    14  10  84 SW3       30.20S
GRAND JUNCTION CLOUDY    27  20  75 CALM      30.17R
RIFLE, CO      CLOUDY    18  15  88 SE3       30.19S
MONTROSE, CO   CLOUDY    30  27  88 CALM      30.16S
CORTEZ, CO     CLOUDY    34  32  92 CALM      30.12S
COLORADO CITY    N/A     23  21  93 CALM      30.15S
PAGE, AZ       CLEAR     33  25  72 SE5       30.13R WCI  29
GRAND CANYON   CLEAR     26  25  96 VRB3      30.09S
KINGMAN, AZ    CLEAR     32  21  64 E8        30.10R WCI  25
FLAGSTAFF, AZ  CLOUDY    27  25  92 CALM      30.06S

$$

REGIONAL REPORTS    NEVADA/IDAHO/WYOMING

CITY           SKY/WX    TMP DP  RH WIND       PRES   REMARKS
LAS VEGAS, NV  CLEAR     38  23  55 SW6       30.13S WCI  33
ELY, NY        PTCLDY    -1  -4  87 S10       30.18F WCI -17
ELKO, NV       CLOUDY    16  12  84 N6        30.24F WCI   7
POCATELLO, ID  CLOUDY    -3  -7  82 E3        30.28S
BURLEY, ID     CLEAR      6   1  80 E10       30.25S WCI  -9
FORT BRIDGER,    N/A      8   3  79 W12       30.14S WCI  -7
EVANSTON, WY   CLOUDY     6   0  76 S3        30.14R
ROCK SPRINGS,  CLOUDY    -6 -10  83 CALM      30.14R FOG

$$



USA.gov is the U.S. government's official web portal to all federal, state and local government web resources and services.